Kill Devil Hills, NC

9:33 AM EST on February 09, 2016 (GMT -0500)
First Flight

Weather History for KFFA - December, 2012

Change the Weather History Date:

Tuesday, December 18, 2012

  Actual Average (KMQI) Record (KMQI)
Temperature  
Mean Temperature 56 °F -  
Max Temperature 61 °F 51 °F 69 °F (2006)
Min Temperature 50 °F 39 °F 23 °F (1980)
Degree Days  
Heating Degree Days 10    
Growing Degree Days 6 (Base 50)    
Moisture  
Dew Point 50 °F    
Average Humidity 81    
Maximum Humidity 97    
Minimum Humidity 61    
Precipitation  
Precipitation 0.00 in - - ()
Sea Level Pressure  
Sea Level Pressure 29.69 in    
Wind  
Wind Speed 9 mph (WSW)    
Max Wind Speed 16 mph    
Max Gust Speed 24 mph    
Averages and records for this station are not official NWS values.
T = Trace of Precipitation, MM = Missing Value Source: NWS Daily Summary

Daily Weather History Graph

Daily Weather History Graph

Search for Another Location

Airport or City:

Trip Planner

Search our weather history database for the weather conditions in past years. The results will help you decide how hot, cold, wet, or windy it might be!

Date:

Astronomy

Dec. 18, 2012 Rise Set
Actual Time 7:08 AM EST 4:51 PM EST
Civil Twilight 6:39 AM EST 5:19 PM EST
Nautical Twilight 6:07 AM EST 5:51 PM EST
Astronomical Twilight 5:36 AM EST 6:23 PM EST
Moon 10:56 AM EST (12/18) 11:03 PM EST (12/18)
Length of Visible Light 10h 40m
Length of Day
9h 42m
Waxing Crescent, 34% of the Moon is Illuminated
Dec 18
Waxing Crescent
Dec 20
First Quarter
Dec 28
Full
Jan 4
Last Quarter
Jan 11
New

Hourly Weather History & Observations

Time (EST) Temp. Dew Point Humidity Pressure Visibility Wind Dir Wind Speed Gust Speed Precip Events Conditions
12:15 AM 55.9 °F 55.0 °F 97% 29.67 in - SSW 11.5 mph 18.4 mph N/A   Overcast
12:35 AM 55.6 °F 54.5 °F 96% 29.65 in - SSW 6.9 mph - N/A   Unknown
12:55 AM 55.4 °F 54.3 °F 96% 29.66 in - SW 5.8 mph - N/A   Unknown
1:15 AM 55.2 °F 54.1 °F 96% 29.67 in - SW 6.9 mph - N/A   Unknown
1:35 AM 54.9 °F 53.8 °F 96% 29.67 in - SW 5.8 mph - N/A   Unknown
1:55 AM 54.7 °F 53.8 °F 97% 29.67 in - SW 5.8 mph - N/A   Unknown
2:15 AM 54.7 °F 53.8 °F 97% 29.67 in - SW 4.6 mph - N/A   Unknown
2:35 AM 54.7 °F 53.8 °F 97% 29.67 in - SW 5.8 mph - N/A   Mostly Cloudy
2:55 AM 54.7 °F 53.8 °F 97% 29.67 in - SW 6.9 mph - N/A   Overcast
3:15 AM 55.2 °F 54.1 °F 96% 29.67 in - SW 8.1 mph - N/A   Overcast
3:35 AM 55.6 °F 54.5 °F 96% 29.66 in - SW 8.1 mph - N/A   Overcast
3:55 AM 56.1 °F 54.5 °F 94% 29.66 in - WSW 9.2 mph - N/A   Overcast
4:15 AM 56.3 °F 54.1 °F 92% 29.66 in - WSW 9.2 mph - N/A   Overcast
4:35 AM 56.3 °F 54.0 °F 92% 29.67 in - WSW 6.9 mph - N/A   Unknown
4:55 AM 55.9 °F 54.0 °F 93% 29.65 in - WSW 8.1 mph - N/A   Unknown
5:15 AM 55.8 °F 54.0 °F 94% 29.65 in - SW 6.9 mph - N/A   Unknown
5:35 AM 55.4 °F 53.6 °F 94% 29.65 in - SW 6.9 mph - N/A   Unknown
5:55 AM 55.0 °F 53.6 °F 95% 29.65 in - SW 6.9 mph - N/A   Unknown
6:15 AM 54.9 °F 53.6 °F 96% 29.66 in - SW 6.9 mph - N/A   Unknown
6:35 AM 54.9 °F 53.6 °F 96% 29.67 in - SW 9.2 mph - N/A   Unknown
6:55 AM 54.7 °F 53.4 °F 96% 29.67 in - SW 8.1 mph - N/A   Unknown
7:15 AM 54.5 °F 53.2 °F 96% 29.67 in - SW 9.2 mph - N/A   Unknown
7:35 AM 54.5 °F 53.2 °F 96% 29.68 in - SW 8.1 mph 17.3 mph N/A   Unknown
7:55 AM 55.0 °F 53.4 °F 94% 29.68 in - WSW 9.2 mph - N/A   Unknown
8:15 AM 55.6 °F 53.2 °F 92% 29.68 in - SW 6.9 mph 16.1 mph N/A   Unknown
8:35 AM 56.1 °F 53.2 °F 90% 29.67 in - WSW 9.2 mph 16.1 mph N/A   Unknown
8:55 AM 56.7 °F 53.1 °F 88% 29.67 in - WSW 10.4 mph 16.1 mph N/A   Unknown
9:15 AM 57.6 °F 53.4 °F 86% 29.67 in - WSW 11.5 mph 16.1 mph N/A   Clear
9:35 AM 58.5 °F 53.2 °F 83% 29.67 in - SW 9.2 mph - N/A   Clear
9:55 AM 59.2 °F 53.6 °F 82% 29.67 in - WSW 9.2 mph 17.3 mph N/A   Unknown
10:15 AM 59.7 °F 53.6 °F 80% 29.66 in - WSW 11.5 mph 17.3 mph N/A   Clear
10:35 AM 60.4 °F 54.0 °F 79% 29.66 in - WSW 11.5 mph 17.3 mph N/A   Clear
10:55 AM 60.8 °F 53.4 °F 77% 29.66 in - WSW 10.4 mph 17.3 mph N/A   Clear
11:15 AM 61.2 °F 53.1 °F 75% 29.65 in - WSW 11.5 mph 20.7 mph N/A   Clear
11:35 AM 61.3 °F 52.5 °F 73% 29.64 in - WSW 10.4 mph 21.9 mph N/A   Clear
11:55 AM 61.3 °F 52.5 °F 73% 29.63 in - West 10.4 mph 18.4 mph N/A   Scattered Clouds
12:15 PM 59.7 °F 52.3 °F 77% 29.63 in - West 9.2 mph 17.3 mph N/A   Overcast
12:35 PM 58.1 °F 52.0 °F 80% 29.63 in - West 9.2 mph - N/A   Mostly Cloudy
1:15 PM 58.5 °F 51.3 °F 77% 29.61 in - West 10.4 mph 18.4 mph N/A   Scattered Clouds
1:35 PM 60.3 °F 51.6 °F 73% 29.61 in - West 11.5 mph 16.1 mph N/A   Clear
1:55 PM 60.4 °F 51.4 °F 72% 29.61 in - West 10.4 mph 16.1 mph N/A   Clear
2:15 PM 60.3 °F 51.3 °F 72% 29.62 in - West 8.1 mph - N/A   Scattered Clouds
2:35 PM 58.8 °F 50.7 °F 74% 29.62 in - West 8.1 mph - N/A   Mostly Cloudy
2:55 PM 59.5 °F 50.5 °F 72% 29.63 in - West 9.2 mph - N/A   Scattered Clouds
3:15 PM 58.5 °F 50.4 °F 74% 29.64 in - West 8.1 mph - N/A   Mostly Cloudy
3:35 PM 58.3 °F 50.5 °F 75% 29.64 in - West 6.9 mph - N/A   Overcast
3:55 PM 58.3 °F 50.5 °F 75% 29.64 in - WNW 8.1 mph - N/A   Mostly Cloudy
4:15 PM 57.0 °F 50.0 °F 77% 29.65 in - WNW 8.1 mph - N/A   Clear
4:35 PM 55.8 °F 49.3 °F 79% 29.66 in - WNW 3.5 mph - N/A   Mostly Cloudy
4:55 PM 55.6 °F 48.0 °F 76% 29.67 in - West 6.9 mph - N/A   Scattered Clouds
5:15 PM 55.4 °F 46.9 °F 73% 29.68 in - West 10.4 mph - N/A   Scattered Clouds
5:35 PM 54.9 °F 46.0 °F 72% 29.68 in - West 8.1 mph - N/A   Clear
5:55 PM 54.3 °F 46.2 °F 74% 29.69 in - West 10.4 mph - N/A   Scattered Clouds
6:15 PM 54.5 °F 45.5 °F 72% 29.70 in - West 11.5 mph 16.1 mph N/A   Clear
6:35 PM 54.5 °F 45.5 °F 72% 29.71 in - West 9.2 mph - N/A   Clear
6:55 PM 54.0 °F 46.0 °F 75% 29.72 in - West 9.2 mph - N/A   Clear
7:15 PM 53.8 °F 45.9 °F 75% 29.73 in - West 10.4 mph 18.4 mph N/A   Clear
7:35 PM 53.6 °F 45.3 °F 74% 29.74 in - West 11.5 mph 17.3 mph N/A   Clear
7:55 PM 53.2 °F 45.7 °F 76% 29.76 in - WNW 8.1 mph - N/A   Clear
8:15 PM 53.1 °F 45.1 °F 74% 29.77 in - West 8.1 mph 16.1 mph N/A   Clear
8:35 PM 52.9 °F 43.7 °F 71% 29.78 in - West 11.5 mph 17.3 mph N/A   Clear
8:55 PM 53.2 °F 41.9 °F 65% 29.79 in - WNW 13.8 mph 20.7 mph N/A   Clear
9:15 PM 53.1 °F 41.2 °F 64% 29.80 in - WNW 13.8 mph 23.0 mph N/A   Clear
9:35 PM 52.3 °F 40.8 °F 65% 29.80 in - WNW 9.2 mph 18.4 mph N/A   Clear
9:55 PM 52.0 °F 40.1 °F 64% 29.80 in - WNW 12.7 mph 20.7 mph N/A   Clear
10:15 PM 51.6 °F 39.4 °F 63% 29.83 in - WNW 16.1 mph 23.0 mph N/A   Clear
10:35 PM 51.4 °F 39.2 °F 63% 29.84 in - WNW 15.0 mph 24.2 mph N/A   Clear
10:55 PM 51.1 °F 38.3 °F 62% 29.84 in - WNW 13.8 mph 24.2 mph N/A   Clear
11:15 PM 50.7 °F 37.6 °F 61% 29.84 in - WNW 11.5 mph 23.0 mph N/A   Clear
11:35 PM 50.2 °F 37.4 °F 62% 29.85 in - WNW 9.2 mph 23.0 mph N/A   Clear
11:55 PM 50.0 °F 37.0 °F 61% 29.84 in - NW 10.4 mph 23.0 mph N/A   Clear